�������l�o���
Date,Time,MP-1(��Sv/h),MP-2(��Sv/h),MP-3(��Sv/h),MP-4(��Sv/h),MP-5(��Sv/h),MP-6(��Sv/h),MP-7(��Sv/h),����,����(m/s),���J
2020/11/28,00:00,0.177,0.158,0.261,0.246,0.242,0.140,0.086,��,2.6,��
2020/11/28,00:10,0.177,0.158,0.260,0.247,0.242,0.141,0.086,��,2.1,��
2020/11/28,00:20,0.177,0.160,0.262,0.247,0.240,0.140,0.085,��,2.2,��
2020/11/28,00:30,0.178,0.158,0.260,0.246,0.242,0.141,0.085,��,2.3,��
2020/11/28,00:40,0.177,0.158,0.260,0.247,0.240,0.141,0.085,��,2.6,��
2020/11/28,00:50,0.177,0.159,0.260,0.247,0.241,0.140,0.085,��,3.2,��
2020/11/28,01:00,0.179,0.159,0.262,0.246,0.241,0.140,0.085,�쐼,3.2,��
2020/11/28,01:10,0.177,0.159,0.260,0.247,0.240,0.140,0.084,��쐼,2.7,��
2020/11/28,01:20,0.176,0.159,0.261,0.247,0.241,0.140,0.085,�쐼,2.4,��
2020/11/28,01:30,0.177,0.158,0.261,0.246,0.240,0.142,0.085,�쐼,3.0,��
2020/11/28,01:40,0.176,0.160,0.259,0.246,0.240,0.140,0.085,�쐼,2.7,��
2020/11/28,01:50,0.178,0.159,0.261,0.247,0.241,0.140,0.085,���쐼,2.6,��
2020/11/28,02:00,0.177,0.159,0.261,0.246,0.239,0.140,0.085,�쐼,1.1,��
2020/11/28,02:10,0.178,0.159,0.260,0.246,0.242,0.141,0.085,-,CALM,��
2020/11/28,02:20,0.177,0.159,0.261,0.248,0.241,0.141,0.085,�쐼,1.0,��
2020/11/28,02:30,0.177,0.159,0.261,0.246,0.241,0.141,0.086,�쐼,1.6,��
2020/11/28,02:40,0.177,0.159,0.260,0.247,0.242,0.142,0.086,��쐼,1.3,��
2020/11/28,02:50,0.178,0.159,0.261,0.248,0.240,0.141,0.086,��,1.3,��
2020/11/28,03:00,0.177,0.159,0.263,0.247,0.241,0.140,0.086,��쓌,1.4,��
2020/11/28,03:10,0.178,0.159,0.261,0.246,0.240,0.140,0.086,�쓌,0.7,��
2020/11/28,03:20,0.177,0.158,0.261,0.246,0.241,0.140,0.085,��쓌,0.6,��
2020/11/28,03:30,0.177,0.159,0.261,0.247,0.241,0.141,0.085,-,CALM,��
2020/11/28,03:40,0.176,0.158,0.260,0.246,0.240,0.140,0.085,-,CALM,��
2020/11/28,03:50,0.178,0.159,0.262,0.247,0.242,0.141,0.085,��,0.6,��
2020/11/28,04:00,0.177,0.159,0.261,0.246,0.243,0.141,0.086,�k��,0.9,��
2020/11/28,04:10,0.178,0.159,0.261,0.246,0.242,0.141,0.086,�k��,1.7,��
2020/11/28,04:20,0.177,0.159,0.262,0.248,0.240,0.141,0.085,�k��,3.0,��
2020/11/28,04:30,0.178,0.159,0.262,0.247,0.241,0.141,0.085,��,1.2,��
2020/11/28,04:40,0.178,0.159,0.261,0.245,0.240,0.141,0.086,��쓌,0.8,��
2020/11/28,04:50,0.177,0.160,0.262,0.247,0.243,0.142,0.086,��쓌,0.6,��
2020/11/28,05:00,0.177,0.159,0.262,0.247,0.241,0.142,0.087,��,1.8,��
2020/11/28,05:10,0.178,0.159,0.260,0.247,0.241,0.141,0.085,��,2.5,��
2020/11/28,05:20,0.177,0.159,0.262,0.248,0.242,0.141,0.086,��,2.5,��
2020/11/28,05:30,0.178,0.159,0.262,0.249,0.241,0.141,0.086,��,3.5,��
2020/11/28,05:40,0.178,0.159,0.261,0.248,0.242,0.141,0.086,��,3.0,��
2020/11/28,05:50,0.178,0.159,0.262,0.247,0.242,0.141,0.086,�쐼,3.0,��
2020/11/28,06:00,0.177,0.159,0.261,0.248,0.241,0.141,0.086,�쐼,2.0,��
2020/11/28,06:10,0.177,0.159,0.261,0.247,0.243,0.142,0.086,��,1.2,��
2020/11/28,06:20,0.178,0.160,0.262,0.247,0.241,0.141,0.086,���k��,1.6,��
2020/11/28,06:30,0.177,0.160,0.262,0.247,0.242,0.141,0.086,�k�k��,3.9,��
2020/11/28,06:40,0.178,0.160,0.261,0.247,0.241,0.141,0.086,�k�k��,5.3,��
2020/11/28,06:50,0.178,0.160,0.261,0.247,0.242,0.142,0.087,�k�k��,6.9,��
2020/11/28,07:00,0.179,0.159,0.262,0.248,0.242,0.142,0.087,�k�k��,6.0,��
2020/11/28,07:10,0.178,0.161,0.262,0.247,0.242,0.141,0.086,�k�k��,7.3,��
2020/11/28,07:20,0.178,0.159,0.262,0.247,0.243,0.142,0.086,�k��,9.6,��
2020/11/28,07:30,0.179,0.159,0.261,0.247,0.241,0.141,0.085,�k��,6.4,��
2020/11/28,07:40,0.178,0.159,0.261,0.247,0.242,0.141,0.086,�k�k��,6.2,��
2020/11/28,07:50,0.178,0.159,0.260,0.247,0.241,0.142,0.086,�k�k��,9.3,��
2020/11/28,08:00,0.178,0.158,0.260,0.246,0.241,0.140,0.085,�k�k��,9.8,��
2020/11/28,08:10,0.177,0.158,0.260,0.246,0.240,0.140,0.085,�k��,8.1,��
2020/11/28,08:20,0.177,0.159,0.260,0.246,0.240,0.141,0.086,�k��,8.4,��
2020/11/28,08:30,0.179,0.159,0.262,0.247,0.242,0.141,0.085,�k�k��,9.3,��
2020/11/28,08:40,0.176,0.159,0.260,0.247,0.241,0.141,0.086,�k��,7.3,��
2020/11/28,08:50,0.178,0.158,0.260,0.245,0.241,0.140,0.085,�k��,8.4,��
2020/11/28,09:00,0.178,0.158,0.261,0.247,0.242,0.140,0.085,�k�k��,10.1,��
2020/11/28,09:10,0.178,0.159,0.260,0.245,0.241,0.140,0.085,�k��,9.8,��
2020/11/28,09:20,0.177,0.159,0.261,0.246,0.241,0.141,0.086,�k��,10.3,��
2020/11/28,09:30,0.178,0.159,0.261,0.247,0.241,0.140,0.085,�k�k��,11.2,��
2020/11/28,09:40,0.177,0.158,0.262,0.246,0.241,0.140,0.085,�k�k��,9.0,��
2020/11/28,09:50,0.178,0.158,0.262,0.246,0.242,0.140,0.085,�k�k��,8.8,��
2020/11/28,10:00,0.176,0.160,0.261,0.246,0.240,0.140,0.085,�k�k��,10.1,��
2020/11/28,10:10,0.177,0.159,0.262,0.248,0.241,0.141,0.085,�k�k��,9.2,��
2020/11/28,10:20,0.177,0.159,0.262,0.247,0.240,0.140,0.084,�k��,5.6,��
2020/11/28,10:30,0.177,0.158,0.263,0.247,0.241,0.140,0.085,�k��,8.1,��
2020/11/28,10:40,0.177,0.159,0.260,0.246,0.239,0.141,0.085,�k�k��,11.4,��
2020/11/28,10:50,0.176,0.159,0.260,0.247,0.241,0.141,0.084,�k��,11.1,��
2020/11/28,11:00,0.178,0.159,0.260,0.245,0.238,0.141,0.085,�k��,8.3,��
2020/11/28,11:10,0.177,0.158,0.261,0.246,0.241,0.140,0.085,�k��,10.9,��
2020/11/28,11:20,0.177,0.158,0.260,0.247,0.239,0.141,0.085,�k��,11.4,��
2020/11/28,11:30,0.176,0.159,0.260,0.246,0.241,0.141,0.085,�k��,10.7,��
2020/11/28,11:40,0.178,0.159,0.261,0.248,0.240,0.141,0.086,�k��,10.1,��
2020/11/28,11:50,0.177,0.159,0.261,0.246,0.241,0.141,0.085,�k��,10.1,��
2020/11/28,12:00,0.177,0.158,0.261,0.247,0.240,0.141,0.085,�k��,8.5,��
2020/11/28,12:10,0.177,0.159,0.262,0.246,0.240,0.141,0.085,���k��,7.6,��
2020/11/28,12:20,0.177,0.159,0.261,0.247,0.240,0.140,0.085,���k��,9.0,��
2020/11/28,12:30,0.177,0.160,0.262,0.246,0.237,0.140,0.085,���k��,6.8,��
2020/11/28,12:40,0.176,0.159,0.260,0.247,0.242,0.142,0.085,���k��,7.3,��
2020/11/28,12:50,0.178,0.159,0.263,0.245,0.240,0.140,0.085,�k��,7.9,��
2020/11/28,13:00,0.176,0.159,0.261,0.248,0.242,0.141,0.085,���k��,9.8,��
2020/11/28,13:10,0.178,0.159,0.262,0.247,0.241,0.142,0.085,���k��,10.1,��
2020/11/28,13:20,0.177,0.160,0.262,0.248,0.242,0.140,0.085,���k��,7.0,��
2020/11/28,13:30,0.180,0.160,0.262,0.248,0.242,0.141,0.086,���k��,7.0,��
2020/11/28,13:40,0.179,0.160,0.263,0.248,0.240,0.141,0.085,��,8.4,��
2020/11/28,13:50,0.177,0.159,0.262,0.247,0.241,0.141,0.087,���k��,8.5,��
2020/11/28,14:00,0.179,0.159,0.263,0.247,0.241,0.141,0.085,���k��,9.8,��
2020/11/28,14:10,0.178,0.160,0.261,0.249,0.241,0.142,0.086,�k��,6.6,��
2020/11/28,14:20,0.178,0.159,0.261,0.246,0.241,0.142,0.085,�k��,5.7,��
2020/11/28,14:30,0.178,0.160,0.262,0.249,0.242,0.142,0.085,���k��,5.6,��
2020/11/28,14:40,0.177,0.159,0.263,0.247,0.241,0.141,0.085,�k��,5.0,��
2020/11/28,14:50,0.177,0.159,0.262,0.247,0.243,0.141,0.085,���k��,5.7,��
2020/11/28,15:00,0.178,0.160,0.261,0.248,0.241,0.140,0.085,�k��,4.9,��
2020/11/28,15:10,0.178,0.159,0.262,0.247,0.242,0.141,0.085,�k�k��,3.1,��
2020/11/28,15:20,0.178,0.158,0.262,0.246,0.243,0.141,0.085,�k��,2.3,��
2020/11/28,15:30,0.178,0.160,0.261,0.248,0.241,0.141,0.085,�k��,5.6,��
2020/11/28,15:40,0.177,0.159,0.262,0.248,0.241,0.141,0.084,���k��,9.3,��
2020/11/28,15:50,0.178,0.159,0.261,0.248,0.242,0.140,0.085,���k��,6.4,��
2020/11/28,16:00,0.177,0.160,0.261,0.248,0.240,0.141,0.085,���k��,6.0,��
2020/11/28,16:10,0.177,0.159,0.263,0.248,0.242,0.142,0.085,���k��,8.4,��
2020/11/28,16:20,0.177,0.159,0.261,0.247,0.241,0.141,0.084,���k��,10.4,��
2020/11/28,16:30,0.177,0.160,0.260,0.248,0.241,0.141,0.085,���k��,12.8,��
2020/11/28,16:40,0.178,0.160,0.260,0.248,0.241,0.141,0.085,���k��,10.9,��
2020/11/28,16:50,0.178,0.159,0.261,0.247,0.242,0.142,0.085,��,12.6,��
2020/11/28,17:00,0.178,0.159,0.262,0.248,0.240,0.142,0.085,���k��,11.7,��
2020/11/28,17:10,0.177,0.159,0.262,0.248,0.240,0.141,0.085,���k��,9.8,��
2020/11/28,17:20,0.177,0.159,0.261,0.248,0.241,0.142,0.085,��,10.9,��
2020/11/28,17:30,0.176,0.158,0.261,0.248,0.241,0.141,0.085,��,10.0,��
2020/11/28,17:40,0.177,0.160,0.263,0.247,0.240,0.142,0.085,���k��,7.3,��
2020/11/28,17:50,0.178,0.160,0.262,0.249,0.241,0.141,0.084,��,5.2,��
2020/11/28,18:00,0.178,0.159,0.262,0.248,0.240,0.142,0.085,��,6.0,��
2020/11/28,18:10,0.178,0.158,0.262,0.247,0.241,0.142,0.085,���k��,3.7,��
2020/11/28,18:20,0.178,0.159,0.263,0.248,0.240,0.142,0.085,���k��,3.2,��
2020/11/28,18:30,0.178,0.159,0.260,0.248,0.242,0.141,0.085,�k�k��,0.8,��
2020/11/28,18:40,0.178,0.159,0.261,0.247,0.240,0.141,0.085,-,CALM,��
2020/11/28,18:50,0.179,0.160,0.262,0.247,0.240,0.142,0.085,�k�k��,1.7,��
2020/11/28,19:00,0.177,0.160,0.261,0.248,0.241,0.142,0.085,�k�k��,1.5,��
2020/11/28,19:10,0.177,0.159,0.261,0.247,0.241,0.140,0.085,���k��,2.0,��
2020/11/28,19:20,0.177,0.159,0.261,0.247,0.241,0.141,0.085,���k��,2.1,��
2020/11/28,19:30,0.178,0.160,0.261,0.245,0.241,0.141,0.086,-,CALM,��
2020/11/28,19:40,0.177,0.159,0.262,0.247,0.241,0.141,0.086,��쐼,2.0,��
2020/11/28,19:50,0.177,0.159,0.261,0.248,0.241,0.142,0.085,��쓌,1.8,��
2020/11/28,20:00,0.177,0.159,0.261,0.247,0.241,0.140,0.085,��쐼,1.0,��
2020/11/28,20:10,0.178,0.159,0.260,0.247,0.241,0.141,0.085,��,1.3,��
2020/11/28,20:20,0.177,0.158,0.262,0.247,0.241,0.140,0.085,-,CALM,��
2020/11/28,20:30,0.177,0.159,0.262,0.247,0.241,0.141,0.085,��쓌,2.2,��
2020/11/28,20:40,0.177,0.160,0.263,0.247,0.241,0.141,0.085,��,0.8,��
2020/11/28,20:50,0.178,0.160,0.261,0.247,0.241,0.141,0.085,��,1.7,��
2020/11/28,21:00,0.178,0.159,0.260,0.246,0.240,0.141,0.085,���쓌,1.0,��
2020/11/28,21:10,0.177,0.159,0.262,0.247,0.239,0.141,0.086,�k�k��,1.3,��
2020/11/28,21:20,0.177,0.159,0.262,0.247,0.241,0.142,0.085,�k�k��,2.1,��
2020/11/28,21:30,0.177,0.159,0.262,0.247,0.241,0.142,0.086,�k�k��,4.7,��
2020/11/28,21:40,0.177,0.159,0.262,0.248,0.241,0.142,0.086,�k,4.4,��
2020/11/28,21:50,0.177,0.159,0.262,0.247,0.240,0.141,0.086,�k,3.6,��
2020/11/28,22:00,0.178,0.158,0.262,0.248,0.241,0.142,0.085,�k�k��,3.4,��
2020/11/28,22:10,0.178,0.160,0.261,0.249,0.241,0.141,0.085,�k�k��,3.3,��
2020/11/28,22:20,0.176,0.160,0.261,0.247,0.240,0.141,0.085,�k�k��,3.3,��
2020/11/28,22:30,0.178,0.159,0.262,0.247,0.240,0.142,0.086,�k�k��,3.3,��
2020/11/28,22:40,0.177,0.159,0.263,0.248,0.241,0.141,0.085,�k�k��,4.3,��
2020/11/28,22:50,0.177,0.160,0.263,0.249,0.240,0.141,0.085,���k��,3.5,��
2020/11/28,23:00,0.178,0.160,0.262,0.249,0.242,0.141,0.086,���k��,3.4,��
2020/11/28,23:10,0.177,0.159,0.261,0.247,0.240,0.142,0.085,���k��,2.6,��
2020/11/28,23:20,0.178,0.159,0.262,0.248,0.241,0.141,0.085,�쐼,2.1,��
2020/11/28,23:30,0.177,0.159,0.261,0.247,0.240,0.140,0.086,��쐼,2.5,��
2020/11/28,23:40,0.177,0.160,0.262,0.247,0.240,0.142,0.085,�쐼,3.7,��
2020/11/28,23:50,0.178,0.159,0.262,0.248,0.240,0.141,0.086,�쐼,4.9,��
